Location: Domont
(49.0278°N, 2.3264°E)
Time: 11:52:21
(UTC+00:00)

NOAA 18 - Pass Details

Date: 05 July 2022
Orbit: 839 x 860 km, 98.9° (Epoch: 13 August)

Event Time Altitude Azimuth Distance (km) Brightness Sun altitude
Exits shadow 21:49:53 12° 184° (S) 2,340 7.0 -13.0°
Maximum altitude 21:54:53 52° 260° (W) 1,058 5.8 -13.4°
Drops below altitude 10° 22:00:19 10° 336° (NNW) 2,507 9.1 -13.8°
Sets 22:02:47 0° 342° (NNW) 3,450 10.2 -14.0°
